| time (UTC) | temp C | wind direction | speed KPH | gust KPH | rain 1hr cm | rain 24hr cm | rain mn cm | humidity % | barometer mb |
| 20260503004043 | 17 | 30 | 0.0 | 0.0 | 0.00 | 0.00 | 0.00 | 33 | 1041.9 |
| 20260503003539 | 17 | 29 | 0.0 | 0.0 | 0.00 | 0.00 | 0.00 | 34 | 1041.9 |
| 20260503003037 | 17 | 33 | 1.6 | 1.6 | 0.00 | 0.00 | 0.00 | 33 | 1042.0 |
| 20260503002534 | 17 | 32 | 0.0 | 1.6 | 0.00 | 0.00 | 0.00 | 33 | 1041.9 |
| 20260503002031 | 17 | 30 | 0.0 | 0.0 | 0.00 | 0.00 | 0.00 | 35 | 1042.0 |
| 20260503001527 | 17 | 27 | 0.0 | 1.6 | 0.00 | 0.00 | 0.00 | 35 | 1042.2 |
| 20260503001024 | 17 | 30 | 0.0 | 0.0 | 0.00 | 0.00 | 0.00 | 35 | 1042.0 |
| 20260503000522 | 17 | 30 | 0.0 | 0.0 | 0.00 | 0.00 | 0.00 | 34 | 1042.0 |
| 20260503000018 | 17 | 31 | 0.0 | 1.6 | 0.00 | 0.00 | 0.00 | 34 | 1042.1 |
| 20260502235515 | 18 | 27 | 0.0 | 1.6 | 0.00 | 0.00 | 0.00 | 34 | 1042.3 |
| 20260502235013 | 18 | 31 | 1.6 | 3.2 | 0.00 | 0.00 | 0.00 | 31 | 1042.2 |
| 20260502234509 | 18 | 50 | 1.6 | 3.2 | 0.00 | 0.00 | 0.00 | 30 | 1042.1 |
| 20260502234007 | 18 | 33 | 1.6 | 3.2 | 0.00 | 0.00 | 0.00 | 30 | 1042.1 |
| 20260502233506 | 18 | 29 | 0.0 | 3.2 | 0.00 | 0.00 | 0.00 | 29 | 1042.2 |
| 20260502233004 | 18 | 30 | 0.0 | 1.6 | 0.00 | 0.00 | 0.00 | 29 | 1042.0 |
| 20260502232500 | 18 | 38 | 0.0 | 1.6 | 0.00 | 0.00 | 0.00 | 28 | 1042.1 |
| 20260502231957 | 18 | 39 | 1.6 | 1.6 | 0.00 | 0.00 | 0.00 | 28 | 1042.1 |
| 20260502231454 | 18 | 32 | 1.6 | 1.6 | 0.00 | 0.00 | 0.00 | 29 | 1042.1 |
| 20260502230952 | 18 | 32 | 0.0 | 0.0 | 0.00 | 0.00 | 0.00 | 29 | 1042.5 |
| 20260502230450 | 18 | 31 | 0.0 | 1.6 | 0.00 | 0.00 | 0.00 | 28 | 1042.2 |
| 20260502225948 | 18 | 32 | 0.0 | 1.6 | 0.00 | 0.00 | 0.00 | 28 | 1042.3 |
| 20260502225444 | 18 | 32 | 0.0 | 1.6 | 0.00 | 0.00 | 0.00 | 29 | 1042.4 |
| 20260502224941 | 18 | 31 | 0.0 | 1.6 | 0.00 | 0.00 | 0.00 | 29 | 1042.4 |
| 20260502224437 | 18 | 32 | 0.0 | 1.6 | 0.00 | 0.00 | 0.00 | 28 | 1042.4 |
| 20260502223934 | 18 | 31 | 0.0 | 1.6 | 0.00 | 0.00 | 0.00 | 28 | 1042.4 |
| 20260502223432 | 18 | 44 | 0.0 | 1.6 | 0.00 | 0.00 | 0.00 | 28 | 1042.5 |
| 20260502222930 | 18 | 30 | 0.0 | 1.6 | 0.00 | 0.00 | 0.00 | 28 | 1042.6 |
| 20260502222427 | 18 | 41 | 0.0 | 3.2 | 0.00 | 0.00 | 0.00 | 28 | 1042.5 |
| 20260502221922 | 18 | 30 | 0.0 | 1.6 | 0.00 | 0.00 | 0.00 | 27 | 1042.7 |
| 20260502221419 | 18 | 21 | 0.0 | 4.8 | 0.00 | 0.00 | 0.00 | 27 | 1042.9 |
| 20260502220916 | 19 | 31 | 0.0 | 1.6 | 0.00 | 0.00 | 0.00 | 28 | 1042.7 |
| 20260502220412 | 19 | 32 | 0.0 | 0.0 | 0.00 | 0.00 | 0.00 | 27 | 1043.1 |
| 20260502215909 | 20 | 29 | 0.0 | 4.8 | 0.00 | 0.00 | 0.00 | 27 | 1042.9 |
| 20260502215406 | 20 | 31 | 0.0 | 3.2 | 0.00 | 0.00 | 0.00 | 27 | 1043.2 |
| 20260502214903 | 20 | 31 | 0.0 | 3.2 | 0.00 | 0.00 | 0.00 | 26 | 1043.1 |
| 20260502214359 | 20 | 33 | 0.0 | 1.6 | 0.00 | 0.00 | 0.00 | 26 | 1043.2 |
| 20260502213857 | 21 | 35 | 0.0 | 1.6 | 0.00 | 0.00 | 0.00 | 25 | 1043.0 |
| 20260502213354 | 21 | 36 | 0.0 | 1.6 | 0.00 | 0.00 | 0.00 | 26 | 1043.3 |
| 20260502212853 | 21 | 36 | 3.2 | 3.2 | 0.00 | 0.00 | 0.00 | 24 | 1043.5 |
| 20260502212351 | 21 | 35 | 0.0 | 3.2 | 0.00 | 0.00 | 0.00 | 25 | 1043.4 |
| 20260502211847 | 21 | 30 | 1.6 | 3.2 | 0.00 | 0.00 | 0.00 | 26 | 1043.3 |
| 20260502211343 | 20 | 32 | 0.0 | 4.8 | 0.00 | 0.00 | 0.00 | 27 | 1043.7 |
| 20260502210841 | 20 | 30 | 1.6 | 4.8 | 0.00 | 0.00 | 0.00 | 26 | 1043.6 |
| 20260502210338 | 20 | 35 | 0.0 | 1.6 | 0.00 | 0.00 | 0.00 | 26 | 1043.9 |
| 20260502205835 | 21 | 29 | 0.0 | 3.2 | 0.00 | 0.00 | 0.00 | 27 | 1043.9 |
| 20260502205331 | 21 | 26 | 0.0 | 3.2 | 0.00 | 0.00 | 0.00 | 25 | 1044.0 |
| 20260502204828 | 21 | 28 | 0.0 | 1.6 | 0.00 | 0.00 | 0.00 | 25 | 1043.9 |
| 20260502204325 | 20 | 18 | 1.6 | 3.2 | 0.00 | 0.00 | 0.00 | 25 | 1044.3 |
| 20260502203822 | 20 | 42 | 1.6 | 3.2 | 0.00 | 0.00 | 0.00 | 24 | 1044.4 |
| 20260502203320 | 20 | 37 | 3.2 | 3.2 | 0.00 | 0.00 | 0.00 | 24 | 1044.4 |
| 20260502202820 | 20 | 31 | 1.6 | 1.6 | 0.00 | 0.00 | 0.00 | 26 | 1044.3 |
| 20260502202319 | 20 | 317 | 3.2 | 4.8 | 0.00 | 0.00 | 0.00 | 26 | 1044.6 |
| 20260502201816 | 20 | 43 | 1.6 | 3.2 | 0.00 | 0.00 | 0.00 | 25 | 1044.8 |
| 20260502201312 | 20 | 25 | 0.0 | 4.8 | 0.00 | 0.00 | 0.00 | 24 | 1044.7 |
| 20260502200808 | 20 | 31 | 1.6 | 3.2 | 0.00 | 0.00 | 0.00 | 25 | 1044.6 |
| 20260502200304 | 20 | 28 | 0.0 | 4.8 | 0.00 | 0.00 | 0.00 | 26 | 1045.1 |
| 20260502195803 | 20 | 23 | 0.0 | 3.2 | 0.00 | 0.00 | 0.00 | 28 | 1045.3 |
| 20260502195259 | 20 | 24 | 1.6 | 1.6 | 0.00 | 0.00 | 0.00 | 26 | 1045.4 |
| 20260502194755 | 20 | 33 | 1.6 | 3.2 | 0.00 | 0.00 | 0.00 | 23 | 1045.3 |
| 20260502194253 | 20 | 32 | 1.6 | 4.8 | 0.00 | 0.00 | 0.00 | 26 | 1045.4 |
| 20260502193748 | 18 | 24 | 1.6 | 3.2 | 0.00 | 0.00 | 0.00 | 27 | 1045.4 |
| 20260502193246 | 18 | 41 | 1.6 | 3.2 | 0.00 | 0.00 | 0.00 | 25 | 1045.7 |
| 20260502192746 | 19 | 35 | 0.0 | 3.2 | 0.00 | 0.00 | 0.00 | 26 | 1045.7 |
| 20260502192244 | 18 | 27 | 0.0 | 1.6 | 0.00 | 0.00 | 0.00 | 28 | 1046.0 |
| 20260502191740 | 18 | 34 | 0.0 | 1.6 | 0.00 | 0.00 | 0.00 | 27 | 1045.9 |
| 20260502191238 | 18 | 22 | 3.2 | 3.2 | 0.00 | 0.00 | 0.00 | 28 | 1046.1 |
| 20260502190735 | 18 | 30 | 0.0 | 3.2 | 0.00 | 0.00 | 0.00 | 26 | 1046.1 |
| 20260502190233 | 18 | 28 | 0.0 | 1.6 | 0.00 | 0.00 | 0.00 | 27 | 1046.3 |
| 20260502185733 | 18 | 36 | 1.6 | 3.2 | 0.00 | 0.00 | 0.00 | 26 | 1046.3 |
| 20260502185229 | 18 | 31 | 3.2 | 4.8 | 0.00 | 0.00 | 0.00 | 27 | 1046.4 |
| 20260502184726 | 18 | 29 | 1.6 | 4.8 | 0.00 | 0.00 | 0.00 | 28 | 1046.7 |
| 20260502184221 | 18 | 34 | 3.2 | 3.2 | 0.00 | 0.00 | 0.00 | 26 | 1046.7 |
| 20260502183718 | 18 | 25 | 0.0 | 3.2 | 0.00 | 0.00 | 0.00 | 27 | 1046.7 |
| 20260502183214 | 18 | 31 | 0.0 | 1.6 | 0.00 | 0.00 | 0.00 | 27 | 1046.8 |
| 20260502182710 | 18 | 41 | 1.6 | 3.2 | 0.00 | 0.00 | 0.00 | 26 | 1047.0 |
| 20260502182205 | 17 | 9 | 3.2 | 3.2 | 0.00 | 0.00 | 0.00 | 26 | 1047.1 |
| 20260502181703 | 17 | 29 | 0.0 | 1.6 | 0.00 | 0.00 | 0.00 | 27 | 1047.3 |
| 20260502181202 | 17 | 29 | 0.0 | 3.2 | 0.00 | 0.00 | 0.00 | 29 | 1047.1 |
| 20260502180658 | 17 | 29 | 0.0 | 1.6 | 0.00 | 0.00 | 0.00 | 30 | 1047.2 |
| 20260502180156 | 17 | 30 | 1.6 | 3.2 | 0.00 | 0.00 | 0.00 | 27 | 1047.3 |
| 20260502170120 | 15 | 31 | 1.6 | 3.2 | 0.00 | 0.00 | 0.00 | 28 | 1048.5 |
| 20260502164106 | 14 | 53 | 1.6 | 3.2 | 0.00 | 0.00 | 0.00 | 30 | 1048.6 |
| 20260502163603 | 14 | 53 | 3.2 | 4.8 | 0.00 | 0.00 | 0.00 | 30 | 1048.8 |
| 20260502163059 | 14 | 33 | 0.0 | 1.6 | 0.00 | 0.00 | 0.00 | 31 | 1048.8 |
| 20260502162556 | 14 | 29 | 1.6 | 4.8 | 0.00 | 0.00 | 0.00 | 30 | 1048.7 |
| 20260502162054 | 14 | 29 | 1.6 | 1.6 | 0.00 | 0.00 | 0.00 | 31 | 1049.0 |
| 20260502161550 | 13 | 24 | 0.0 | 3.2 | 0.00 | 0.00 | 0.00 | 33 | 1048.8 |
| 20260502161048 | 13 | 87 | 1.6 | 3.2 | 0.00 | 0.00 | 0.00 | 31 | 1049.0 |
| 20260502160546 | 13 | 25 | 1.6 | 3.2 | 0.00 | 0.00 | 0.00 | 31 | 1049.0 |
| 20260502151953 | 12 | 22 | 0.0 | 1.6 | 0.00 | 0.00 | 0.00 | 36 | 1049.5 |
| 20260502151449 | 12 | 34 | 0.0 | 1.6 | 0.00 | 0.00 | 0.00 | 36 | 1049.4 |
| 20260502150947 | 12 | 30 | 0.0 | 0.0 | 0.00 | 0.00 | 0.00 | 35 | 1049.4 |
| 20260502150444 | 12 | 35 | 1.6 | 1.6 | 0.00 | 0.00 | 0.00 | 34 | 1049.3 |
| 20260502130329 | 8 | 32 | 0.0 | 0.0 | 0.00 | 0.00 | 0.00 | 47 | 1050.0 |
| 20260502123814 | 6 | 34 | 0.0 | 0.0 | 0.00 | 0.00 | 0.00 | 56 | 1050.1 |
| 20260502123312 | 5 | 34 | 0.0 | 0.0 | 0.00 | 0.00 | 0.00 | 58 | 1050.1 |
| 20260502122808 | 5 | 34 | 0.0 | 0.0 | 0.00 | 0.00 | 0.00 | 59 | 1050.0 |
| 20260502122306 | 5 | 34 | 0.0 | 0.0 | 0.00 | 0.00 | 0.00 | 59 | 1050.1 |
| 20260502121803 | 5 | 34 | 0.0 | 0.0 | 0.00 | 0.00 | 0.00 | 60 | 1050.1 |
| 20260502121300 | 4 | 34 | 0.0 | 0.0 | 0.00 | 0.00 | 0.00 | 62 | 1050.1 |
| 20260502120757 | 3 | 34 | 0.0 | 0.0 | 0.00 | 0.00 | 0.00 | 65 | 1050.0 |
| 20260502120253 | 3 | 32 | 0.0 | 0.0 | 0.00 | 0.00 | 0.00 | 68 | 1050.2 |
| 20260502115751 | 2 | 33 | 0.0 | 0.0 | 0.00 | 0.00 | 0.00 | 71 | 1050.1 |
| 20260502115248 | 2 | 32 | 0.0 | 0.0 | 0.00 | 0.00 | 0.00 | 74 | 1050.1 |
| 20260502114744 | 1 | 32 | 0.0 | 0.0 | 0.00 | 0.00 | 0.00 | 75 | 1050.0 |
| 20260502114241 | 1 | 33 | 0.0 | 0.0 | 0.00 | 0.00 | 0.00 | 76 | 1050.2 |
| 20260502113738 | 1 | 32 | 0.0 | 0.0 | 0.00 | 0.00 | 0.00 | 76 | 1050.1 |
| 20260502113236 | 1 | 32 | 0.0 | 0.0 | 0.00 | 0.00 | 0.00 | 76 | 1050.1 |
| 20260502112734 | 1 | 32 | 0.0 | 0.0 | 0.00 | 0.00 | 0.00 | 76 | 1050.0 |
| 20260502112231 | 1 | 33 | 0.0 | 0.0 | 0.00 | 0.00 | 0.00 | 76 | 1049.9 |
| 20260502111728 | 1 | 32 | 0.0 | 0.0 | 0.00 | 0.00 | 0.00 | 76 | 1050.0 |
| 20260502111226 | 1 | 32 | 0.0 | 0.0 | 0.00 | 0.00 | 0.00 | 76 | 1050.1 |
| 20260502110723 | 1 | 33 | 0.0 | 0.0 | 0.00 | 0.00 | 0.00 | 76 | 1050.0 |
| 20260502110221 | 1 | 33 | 0.0 | 0.0 | 0.00 | 0.00 | 0.00 | 76 | 1049.9 |
| 20260502105718 | 1 | 33 | 0.0 | 0.0 | 0.00 | 0.00 | 0.00 | 76 | 1049.8 |
| 20260502105214 | 1 | 33 | 0.0 | 0.0 | 0.00 | 0.00 | 0.00 | 76 | 1049.9 |
| 20260502104712 | 1 | 33 | 0.0 | 0.0 | 0.00 | 0.00 | 0.00 | 76 | 1049.9 |
| 20260502104210 | 1 | 33 | 0.0 | 0.0 | 0.00 | 0.00 | 0.00 | 76 | 1049.7 |
| 20260502103707 | 1 | 33 | 0.0 | 0.0 | 0.00 | 0.00 | 0.00 | 75 | 1049.7 |
| 20260502103205 | 1 | 33 | 0.0 | 0.0 | 0.00 | 0.00 | 0.00 | 75 | 1049.8 |
| 20260502102701 | 1 | 33 | 0.0 | 0.0 | 0.00 | 0.00 | 0.00 | 75 | 1049.9 |
| 20260502102158 | 1 | 33 | 0.0 | 0.0 | 0.00 | 0.00 | 0.00 | 76 | 1049.8 |
| 20260502101656 | 1 | 33 | 0.0 | 0.0 | 0.00 | 0.00 | 0.00 | 75 | 1049.7 |
| 20260502101154 | 1 | 33 | 0.0 | 0.0 | 0.00 | 0.00 | 0.00 | 75 | 1049.9 |
| 20260502100652 | 2 | 33 | 0.0 | 0.0 | 0.00 | 0.00 | 0.00 | 74 | 1049.8 |
| 20260502100150 | 2 | 33 | 0.0 | 0.0 | 0.00 | 0.00 | 0.00 | 74 | 1049.8 |
| 20260502091124 | 3 | 33 | 0.0 | 0.0 | 0.00 | 0.00 | 0.00 | 66 | 1049.7 |
| 20260502090621 | 3 | 33 | 0.0 | 0.0 | 0.00 | 0.00 | 0.00 | 64 | 1049.4 |
| 20260502090118 | 4 | 33 | 0.0 | 0.0 | 0.00 | 0.00 | 0.00 | 63 | 1049.4 |
| 20260502071516 | 3 | 32 | 0.0 | 0.0 | 0.00 | 0.00 | 0.00 | 67 | 1049.9 |
| 20260502071014 | 3 | 32 | 0.0 | 0.0 | 0.00 | 0.00 | 0.00 | 66 | 1049.8 |
| 20260502070511 | 3 | 32 | 0.0 | 0.0 | 0.00 | 0.00 | 0.00 | 65 | 1049.9 |
| 20260502070009 | 3 | 32 | 0.0 | 0.0 | 0.00 | 0.00 | 0.00 | 64 | 1050.0 |
| 20260502065508 | 4 | 32 | 0.0 | 0.0 | 0.00 | 0.00 | 0.00 | 64 | 1049.9 |
| 20260502065005 | 4 | 32 | 0.0 | 0.0 | 0.00 | 0.00 | 0.00 | 63 | 1050.0 |
| 20260502064504 | 5 | 32 | 0.0 | 1.6 | 0.00 | 0.00 | 0.00 | 63 | 1049.9 |
| 20260502064000 | 5 | 32 | 0.0 | 0.0 | 0.00 | 0.00 | 0.00 | 62 | 1050.1 |
| 20260502063458 | 5 | 31 | 0.0 | 0.0 | 0.00 | 0.00 | 0.00 | 61 | 1050.0 |
| 20260502062955 | 5 | 30 | 0.0 | 0.0 | 0.00 | 0.00 | 0.00 | 60 | 1049.9 |
| 20260502062452 | 6 | 29 | 0.0 | 0.0 | 0.00 | 0.00 | 0.00 | 58 | 1050.1 |
| 20260502061951 | 6 | 29 | 0.0 | 0.0 | 0.00 | 0.00 | 0.00 | 56 | 1050.1 |
| 20260502061449 | 6 | 29 | 0.0 | 0.0 | 0.00 | 0.00 | 0.00 | 57 | 1050.0 |
| 20260502060944 | 6 | 29 | 0.0 | 0.0 | 0.00 | 0.00 | 0.00 | 57 | 1050.0 |
| 20260502060439 | 6 | 29 | 0.0 | 0.0 | 0.00 | 0.00 | 0.00 | 56 | 1050.2 |
| 20260502055937 | 6 | 29 | 0.0 | 0.0 | 0.00 | 0.00 | 0.00 | 56 | 1050.1 |
| 20260502055435 | 6 | 30 | 0.0 | 0.0 | 0.00 | 0.00 | 0.00 | 56 | 1049.9 |
| 20260502054934 | 6 | 29 | 0.0 | 0.0 | 0.00 | 0.00 | 0.00 | 57 | 1050.2 |
| 20260502054432 | 6 | 31 | 0.0 | 0.0 | 0.00 | 0.00 | 0.00 | 57 | 1050.1 |
| 20260502053929 | 5 | 31 | 0.0 | 0.0 | 0.00 | 0.00 | 0.00 | 58 | 1050.1 |
| 20260502053426 | 5 | 31 | 0.0 | 0.0 | 0.00 | 0.00 | 0.00 | 58 | 1050.1 |
| 20260502052924 | 5 | 31 | 0.0 | 0.0 | 0.00 | 0.00 | 0.00 | 58 | 1050.1 |
| 20260502052422 | 5 | 31 | 0.0 | 0.0 | 0.00 | 0.00 | 0.00 | 57 | 1050.1 |
| 20260502051920 | 5 | 31 | 0.0 | 0.0 | 0.00 | 0.00 | 0.00 | 56 | 1050.0 |
| 20260502051418 | 5 | 31 | 0.0 | 0.0 | 0.00 | 0.00 | 0.00 | 55 | 1050.1 |
| 20260502050914 | 5 | 31 | 0.0 | 0.0 | 0.00 | 0.00 | 0.00 | 54 | 1050.2 |
| 20260502050410 | 5 | 31 | 0.0 | 0.0 | 0.00 | 0.00 | 0.00 | 54 | 1050.1 |
| 20260502045908 | 5 | 31 | 0.0 | 0.0 | 0.00 | 0.00 | 0.00 | 54 | 1050.2 |
| 20260502045404 | 5 | 31 | 0.0 | 0.0 | 0.00 | 0.00 | 0.00 | 55 | 1050.2 |
| 20260502044901 | 5 | 31 | 0.0 | 0.0 | 0.00 | 0.00 | 0.00 | 54 | 1050.1 |
| 20260502044357 | 5 | 31 | 0.0 | 0.0 | 0.00 | 0.00 | 0.00 | 54 | 1050.1 |
| 20260502043854 | 5 | 31 | 0.0 | 0.0 | 0.00 | 0.00 | 0.00 | 54 | 1050.1 |
| 20260502043352 | 5 | 31 | 0.0 | 0.0 | 0.00 | 0.00 | 0.00 | 52 | 1050.0 |
| 20260502042852 | 5 | 31 | 0.0 | 0.0 | 0.00 | 0.00 | 0.00 | 51 | 1050.0 |
| 20260502042349 | 5 | 31 | 0.0 | 0.0 | 0.00 | 0.00 | 0.00 | 51 | 1049.9 |
| 20260502041846 | 5 | 31 | 0.0 | 0.0 | 0.00 | 0.00 | 0.00 | 50 | 1049.9 |
| 20260502041343 | 6 | 31 | 0.0 | 0.0 | 0.00 | 0.00 | 0.00 | 49 | 1050.1 |
| 20260502040841 | 6 | 31 | 0.0 | 0.0 | 0.00 | 0.00 | 0.00 | 47 | 1050.0 |
| 20260502040338 | 6 | 31 | 0.0 | 0.0 | 0.00 | 0.00 | 0.00 | 47 | 1050.1 |
| 20260502035834 | 6 | 31 | 0.0 | 0.0 | 0.00 | 0.00 | 0.00 | 47 | 1050.2 |
| 20260502035330 | 6 | 31 | 0.0 | 0.0 | 0.00 | 0.00 | 0.00 | 47 | 1049.9 |
| 20260502034828 | 6 | 31 | 0.0 | 0.0 | 0.00 | 0.00 | 0.00 | 46 | 1049.8 |
| 20260502034326 | 6 | 31 | 0.0 | 0.0 | 0.00 | 0.00 | 0.00 | 45 | 1050.1 |
| 20260502033824 | 6 | 31 | 0.0 | 0.0 | 0.00 | 0.00 | 0.00 | 46 | 1050.1 |
| 20260502033322 | 6 | 31 | 0.0 | 0.0 | 0.00 | 0.00 | 0.00 | 46 | 1050.2 |
| 20260502032818 | 6 | 31 | 0.0 | 0.0 | 0.00 | 0.00 | 0.00 | 45 | 1050.2 |
| 20260502032314 | 6 | 31 | 0.0 | 0.0 | 0.00 | 0.00 | 0.00 | 44 | 1050.2 |
| 20260502031812 | 7 | 31 | 0.0 | 0.0 | 0.00 | 0.00 | 0.00 | 44 | 1050.2 |
| 20260502031310 | 7 | 31 | 0.0 | 0.0 | 0.00 | 0.00 | 0.00 | 44 | 1050.1 |
| 20260502030808 | 7 | 31 | 0.0 | 0.0 | 0.00 | 0.00 | 0.00 | 43 | 1050.1 |
| 20260502030306 | 7 | 31 | 0.0 | 0.0 | 0.00 | 0.00 | 0.00 | 43 | 1050.2 |
| 20260502025803 | 7 | 31 | 0.0 | 0.0 | 0.00 | 0.00 | 0.00 | 43 | 1050.0 |
| 20260502025301 | 6 | 31 | 0.0 | 0.0 | 0.00 | 0.00 | 0.00 | 44 | 1049.9 |
| 20260502024758 | 6 | 31 | 0.0 | 0.0 | 0.00 | 0.00 | 0.00 | 43 | 1049.9 |
| 20260502024256 | 7 | 31 | 0.0 | 0.0 | 0.00 | 0.00 | 0.00 | 44 | 1050.0 |
| 20260502023754 | 7 | 31 | 0.0 | 0.0 | 0.00 | 0.00 | 0.00 | 42 | 1050.2 |
| 20260502023251 | 7 | 31 | 0.0 | 0.0 | 0.00 | 0.00 | 0.00 | 41 | 1050.1 |
| 20260502022749 | 7 | 31 | 0.0 | 0.0 | 0.00 | 0.00 | 0.00 | 41 | 1050.0 |
| 20260502022244 | 7 | 31 | 0.0 | 0.0 | 0.00 | 0.00 | 0.00 | 40 | 1050.1 |
| 20260502021742 | 7 | 31 | 0.0 | 0.0 | 0.00 | 0.00 | 0.00 | 39 | 1050.1 |
| 20260502021239 | 7 | 31 | 0.0 | 0.0 | 0.00 | 0.00 | 0.00 | 39 | 1050.0 |
| 20260502020736 | 7 | 32 | 0.0 | 0.0 | 0.00 | 0.00 | 0.00 | 38 | 1049.9 |
| 20260502020234 | 7 | 32 | 0.0 | 0.0 | 0.00 | 0.00 | 0.00 | 38 | 1049.8 |
| 20260502015732 | 8 | 32 | 0.0 | 0.0 | 0.00 | 0.00 | 0.00 | 38 | 1049.8 |
| 20260502015227 | 8 | 32 | 0.0 | 0.0 | 0.00 | 0.00 | 0.00 | 36 | 1049.7 |
| 20260502014725 | 8 | 32 | 0.0 | 0.0 | 0.00 | 0.00 | 0.00 | 35 | 1049.5 |
| 20260502014222 | 8 | 32 | 0.0 | 0.0 | 0.00 | 0.00 | 0.00 | 35 | 1049.5 |
| 20260502013718 | 9 | 32 | 0.0 | 0.0 | 0.00 | 0.00 | 0.00 | 34 | 1049.3 |
| 20260502013213 | 10 | 32 | 0.0 | 0.0 | 0.00 | 0.00 | 0.00 | 33 | 1049.4 |
| 20260502012711 | 10 | 32 | 0.0 | 0.0 | 0.00 | 0.00 | 0.00 | 31 | 1049.4 |
| 20260502012209 | 10 | 29 | 0.0 | 0.0 | 0.00 | 0.00 | 0.00 | 31 | 1049.4 |
| 20260502011705 | 10 | 29 | 0.0 | 0.0 | 0.00 | 0.00 | 0.00 | 30 | 1049.5 |
| 20260502011201 | 10 | 31 | 0.0 | 0.0 | 0.00 | 0.00 | 0.00 | 31 | 1049.2 |
| 20260502010659 | 10 | 28 | 0.0 | 1.6 | 0.00 | 0.00 | 0.00 | 29 | 1049.4 |
| 20260502010155 | 11 | 29 | 0.0 | 0.0 | 0.00 | 0.00 | 0.00 | 28 | 1049.3 |
| 20260502005652 | 11 | 28 | 0.0 | 1.6 | 0.00 | 0.00 | 0.00 | 27 | 1049.4 |
| 20260502005150 | 11 | 8 | 3.2 | 3.2 | 0.00 | 0.00 | 0.00 | 28 | 1049.4 |
| 20260502004646 | 11 | 27 | 0.0 | 1.6 | 0.00 | 0.00 | 0.00 | 27 | 1049.4 |